CW5229 Weather Reports


Display with metric or nautical units.
time (UTC)temp
F
wind
direction
speed
MPH
gust
MPH
rain 1hr
in
rain 24hr
in
rain mn
in
humidity
%
barometer
mb
20260906201534 79 74 2.0 8.0 0.00 0.00 0.00 54 1016.7
20260906200022 79 82 4.0 8.0 0.00 0.00 0.00 51 1016.7
20260906194522 78 70 5.0 12.0 0.00 0.00 0.00 47 1016.6
20260906193015 79 314 2.0 13.0 0.00 0.00 0.00 48 1016.7
20260906191515 80 57 3.0 11.0 0.00 0.00 0.00 48 1016.6
20260906190012 80 65 2.0 10.0 0.00 0.00 0.00 52 1016.7
20260906184510 80 9 3.0 8.0 0.00 0.00 0.00 54 1016.8
20260906183055 79 58 4.0 10.0 0.00 0.00 0.00 54 1016.9
20260906181541 78 80 4.0 10.0 0.00 0.00 0.00 56 1016.9
20260906180002 78 72 5.0 12.0 0.00 0.00 0.00 56 1017.0
20260906174621 77 67 5.0 15.0 0.00 0.00 0.00 59 1017.3
20260906173053 77 53 6.0 11.0 0.00 0.00 0.00 60 1017.5
20260906171609 78 65 4.0 10.0 0.00 0.00 0.00 62 1017.6
20260906170057 78 75 4.0 11.0 0.00 0.00 0.00 60 1017.4
20260906164547 78 38 5.0 11.0 0.00 0.00 0.00 59 1017.3
20260906163043 78 314 4.0 11.0 0.00 0.00 0.00 60 1017.5
20260906161602 77 74 4.0 11.0 0.00 0.00 0.00 63 1017.6
20260906160042 77 83 3.0 11.0 0.00 0.00 0.00 66 1017.5
20260906154545 77 82 3.0 8.0 0.00 0.00 0.00 68 1017.6
20260906153009 78 75 2.0 6.0 0.00 0.00 0.00 66 1017.6
20260906151508 77 111 1.0 4.0 0.00 0.00 0.00 69 1017.5
20260906150005 76 44 1.0 5.0 0.00 0.00 0.00 72 1017.3
20260906144503 76 87 1.0 5.0 0.00 0.00 0.00 70 1017.3
20260906143002 76 76 2.0 7.0 0.00 0.00 0.00 71 1017.1
20260906141501 75 35 2.0 6.0 0.00 0.00 0.00 73 1017.2
20260906140100 74 30 3.0 7.0 0.00 0.00 0.00 73 1017.1
20260906134558 74 121 2.0 6.0 0.00 0.00 0.00 74 1017.0
20260906133108 73 45 1.0 6.0 0.00 0.00 0.00 82 1017.2
20260906131606 71 59 3.0 6.0 0.00 0.00 0.00 85 1017.1
20260906130058 71 85 2.0 5.0 0.00 0.00 0.00 86 1017.1
20260906124551 72 65 2.0 4.0 0.00 0.00 0.00 86 1016.9
20260906123055 72 87 0.0 2.0 0.00 0.00 0.00 84 1016.7
20260906121546 0 0.0 0.0 0.00 0.00 0.00 1016.4
20260906120041 0 0.0 0.0 0.00 0.00 0.00 1016.4
20260906114541 0 0.0 0.0 0.00 0.00 0.00 1016.1
20260906113030 0 0.0 0.0 0.00 0.00 0.00 1015.8
20260906111530 0 0.0 0.0 0.00 0.00 0.00 1015.6
20260906110020 0 0.0 0.0 0.00 0.00 0.00 1015.2
20260906104513 0 0.0 0.0 0.00 0.00 0.00 1015.2
20260906103013 0 0.0 0.0 0.00 0.00 0.00 1015.0
20260906101536 0 51 0.0 1.0 0.00 0.00 0.00 1014.8
20260906100035 69 62 0.0 2.0 0.00 0.00 0.00 91 1014.8
20260906094502 69 62 0.0 2.0 0.00 0.00 0.00 91 1014.9
20260906093059 69 51 0.0 0.0 0.00 0.00 0.00 91 1014.7
20260906091556 70 51 0.0 2.0 0.00 0.00 0.00 91 1014.6
20260906090055 70 58 0.0 0.0 0.00 0.00 0.00 90 1014.6
20260906084556 71 58 0.0 0.0 0.00 0.00 0.00 90 1014.5
20260906083051 71 58 0.0 0.0 0.00 0.00 0.00 90 1014.6
20260906081548 71 58 0.0 1.0 0.00 0.00 0.00 90 1014.7
20260906080048 71 62 0.0 1.0 0.00 0.00 0.00 89 1014.7
20260906074545 72 59 0.0 3.0 0.00 0.00 0.00 89 1014.8
20260906073044 72 66 1.0 3.0 0.00 0.00 0.00 89 1014.8
20260906071541 72 81 0.0 4.0 0.00 0.00 0.00 89 1014.7
20260906070040 72 91 1.0 4.0 0.00 0.00 0.00 89 1014.7
20260906064540 72 70 1.0 5.0 0.00 0.00 0.00 89 1014.8
20260906063039 72 58 1.0 7.0 0.00 0.00 0.00 89 1014.8
20260906061540 72 4 2.0 6.0 0.00 0.00 0.00 89 1014.8
20260906060038 72 43 3.0 7.0 0.00 0.00 0.00 89 1014.8
20260906054537 72 84 1.0 6.0 0.00 0.00 0.00 90 1014.6
20260906053030 72 80 4.0 8.0 0.00 0.00 0.00 89 1014.3
20260906051600 72 47 3.0 6.0 0.00 0.00 0.00 89 1014.2
20260906050057 72 224 2.0 6.0 0.00 0.00 0.00 90 1014.1
20260906044555 72 63 2.0 6.0 0.00 0.00 0.00 89 1014.0
20260906043052 72 37 4.0 11.0 0.00 0.00 0.00 89 1013.8
20260906041550 72 359 3.0 11.0 0.00 0.00 0.00 89 1013.8
20260906040049 72 14 4.0 10.0 0.00 0.00 0.00 88 1013.7
20260906034558 73 79 6.0 13.0 0.00 0.00 0.00 88 1013.6
20260906033046 73 76 6.0 16.0 0.00 0.00 0.00 88 1013.5
20260906031543 73 79 5.0 12.0 0.00 0.00 0.00 88 1013.5
20260906030044 73 83 4.0 11.0 0.00 0.00 0.00 88 1013.4
20260906024540 73 72 2.0 6.0 0.00 0.00 0.00 88 1013.4
20260906023037 73 99 4.0 12.0 0.00 0.00 0.00 88 1013.6
20260906021541 73 78 1.0 6.0 0.00 0.00 0.00 88 1013.6
20260906020036 73 333 2.0 9.0 0.00 0.00 0.00 88 1013.7
20260906014532 73 42 1.0 7.0 0.00 0.00 0.00 87 1013.6
20260906013031 72 60 2.0 8.0 0.00 0.00 0.00 87 1013.4
20260906011529 72 311 1.0 7.0 0.00 0.00 0.00 88 1013.2
20260906010026 72 86 2.0 8.0 0.00 0.00 0.00 87 1013.0
20260906004523 72 347 1.0 12.0 0.00 0.00 0.00 87 1012.9
20260906003021 72 88 1.0 6.0 0.00 0.00 0.00 86 1012.8
20260906001539 73 35 2.0 10.0 0.00 0.00 0.00 86 1012.9
20260906000019 73 68 2.0 5.0 0.00 0.00 0.00 86 1012.8
20260905234515 73 77 4.0 12.0 0.00 0.00 0.00 87 1012.7
20260905233015 74 77 3.0 14.0 0.00 0.00 0.00 86 1012.6
20260905231515 75 219 1.0 8.0 0.00 0.00 0.00 84 1012.4
20260905230007 75 86 5.0 14.0 0.00 0.00 0.00 84 1012.3
20260905224502 76 69 3.0 12.0 0.00 0.00 0.00 83 1012.2
20260905223100 76 85 5.0 9.0 0.00 0.00 0.00 82 1012.3
20260905221602 77 64 3.0 7.0 0.00 0.00 0.00 81 1012.3
20260905220059 77 91 5.0 7.0 0.00 0.00 0.00 82 1012.3
20260905214557 76 63 0.0 8.0 0.00 0.00 0.00 84 1012.3
20260905213053 77 82 0.0 6.0 0.00 0.00 0.00 83 1012.0
20260905211552 77 269 2.0 7.0 0.00 0.00 0.00 82 1012.1
20260905210107 77 69 2.0 9.0 0.00 0.00 0.00 81 1012.0
20260905204548 78 65 3.0 10.0 0.00 0.00 0.00 80 1011.9
20260905203046 78 63 2.0 9.0 0.00 0.00 0.00 81 1012.1